Location: Gr�nlas
(49.9664°N, 11.9344°E)
Time: 05:30:14
(UTC+00:00)

Daily predictions for brighter satellites

Satellite Brightness Start Highest point End
(mag) Time Altitude Azimuth Time Altitude Azimuth Time Altitude Azimuth
STARLINK-1228 3.4 00:00:24 10° WNW 00:03:21 45° SW 00:03:21 45° SW
STARLINK-1243 4.3 00:01:35 10° WNW 00:05:40 55° N 00:09:45 10° E
Meteor 2-21 Rocket 4.5 00:03:47 27° S 00:07:19 78° E 00:13:31 10° NNE
PSLV R/B 3.8 00:03:03 10° N 00:07:39 69° WNW 00:09:38 32° SSW
STARLINK-1197 3.6 00:04:24 10° WNW 00:08:34 81° NNE 00:12:43 10° ESE
Cosmos 1953 4.4 00:06:41 10° NW 00:08:54 15° W 00:09:56 13° WSW
STARLINK-1236 4.3 00:06:36 10° WNW 00:10:41 55° N 00:14:46 10° E
Cosmos 1867 4.4 00:07:28 10° NW 00:12:19 33° WSW 00:13:53 28° SSW
Timation 2 Rocket 3.9 00:06:46 10° NW 00:13:07 69° WSW 00:17:13 22° SSE
STARLINK-1198 3.6 00:09:25 10° WNW 00:13:35 85° NNE 00:17:44 10° ESE
Cosmos 1892 Rocket 3.7 00:12:32 33° SSW 00:14:22 64° WNW 00:18:45 10° N
Meteor 2-14 Rocket 4.4 00:13:24 27° SSW 00:16:54 79° W 00:23:05 10° N
Cosmos 2297 Rocket 2.7 00:12:15 10° NNW 00:17:52 60° ENE 00:23:26 10° SE
STARLINK-1199 3.6 00:14:22 10° WNW 00:18:32 88° N 00:22:41 10° ESE
Cosmos 1674 4.0 00:17:42 22° WSW 00:19:04 28° WNW 00:22:23 10° N
SL-16 R/B 2.9 00:13:22 11° SE 00:19:15 62° ENE 00:25:21 10° N
STARLINK-1269 4.3 00:16:33 10° WNW 00:20:39 57° N 00:24:44 10° E
Cosmos 1726 Rocket 4.5 00:16:53 10° NNW 00:20:48 34° W 00:22:11 27° SW
Lacrosse 4 Rocket 3.9 00:17:31 10° NNW 00:21:07 24° NE 00:24:38 10° E
STARLINK-60 2.8 00:21:09 43° WSW 00:22:03 85° SSE 00:25:16 10° ENE
Cosmos 1745 Rocket 4.1 00:18:39 23° S 00:22:36 69° E 00:28:42 10° NNE
COSMOS 2455 3.0 00:18:54 22° SW 00:22:57 71° NW 00:29:01 10° NNE
STARLINK-1210 3.5 00:19:22 10° WNW 00:23:31 88° SSW 00:27:41 10° ESE
STARLINK-1200 4.3 00:21:34 10° WNW 00:25:40 57° N 00:29:46 10° E
Starlink 7 placeholder 3.4 00:27:40 33° NE 00:27:40 33° NE 00:28:57 10° ENE
MOZ.5/SAFIR/RUBIN 5/SL-8 3.8 00:25:18 20° SSE 00:28:27 76° ENE 00:33:06 10° NNW
STARLINK-1219 3.5 00:24:20 10° WNW 00:28:29 84° SSW 00:32:39 10° ESE
Cosmos 1437 2.4 00:28:12 52° S 00:28:50 89° E 00:31:51 10° NNE
STARLINK-1192 4.2 00:26:34 10° WNW 00:30:40 58° N 00:34:46 10° E
Cosmos 1455 3.5 00:29:25 10° N 00:32:55 36° ENE 00:35:59 13° SE
STARLINK-1211 3.5 00:29:19 10° WNW 00:33:29 80° SSW 00:37:37 10° ESE
Cosmos 2084 3.8 00:31:35 30° S 00:33:30 54° SE 00:37:52 10° NE
Spot 1 4.5 00:32:34 28° S 00:34:55 58° W 00:39:47 10° NNW
Cosmos 1898 Rocket 4.2 00:29:48 10° NNW 00:35:05 55° ENE 00:40:18 10° SE
ADEOS II 4.1 00:31:27 10° NE 00:35:22 21° E 00:39:16 10° SE
Meteor 1-29 3.7 00:32:14 10° N 00:35:27 40° WNW 00:36:37 29° WSW
STARLINK-1244 4.2 00:31:33 10° WNW 00:35:39 59° N 00:39:46 10° E
SL-08 ROCKET BODY 4.4 00:31:53 23° S 00:35:40 81° E 00:41:32 10° NNE
STARLINK-1245 3.5 00:34:18 10° WNW 00:38:27 76° SSW 00:42:35 10° ESE
SL-4 R/B 2.3 00:35:31 17° WSW 00:39:11 82° SSE 00:43:56 10° ENE
STARLINK-1138 4.2 00:36:31 10° WNW 00:40:38 61° N 00:44:45 10° E
Cosmos 1937 Rocket 4.5 00:37:07 10° NNW 00:42:11 47° ENE 00:47:16 10° SE
STARLINK-1233 3.5 00:39:17 10° WNW 00:43:25 72° SSW 00:47:33 10° ESE
CZ-2D R/B 2.6 00:38:29 10° NNE 00:43:40 54° E 00:47:17 19° S
STARLINK-1143 4.1 00:41:30 10° WNW 00:45:38 62° N 00:49:44 10° E
SJ 16-02 1.6 00:41:20 10° NNW 00:45:47 71° ENE 00:50:04 11° SSE
Resurs 1-4 Rocket 2.5 00:41:29 10° NNE 00:46:44 59° ESE 00:50:27 19° S
STARLINK-1204 3.5 00:44:16 10° WNW 00:48:24 68° SSW 00:52:31 10° SE
DELTA 2 DEB (DPAF) 4.3 00:46:20 26° S 00:48:40 55° W 00:53:06 10° NNW
Cosmos 921 Rocket 3.2 00:47:04 27° SW 00:49:17 62° WNW 00:53:36 10° NNE
STARLINK-1203 4.1 00:45:35 10° WNW 00:49:46 64° NNE 00:53:57 10° E
Cosmos 2058 Rocket 4.3 00:46:10 10° NNW 00:49:55 28° W 00:51:37 21° SW
STARLINK-1241 4.1 00:46:30 10° WNW 00:50:38 64° NNE 00:54:45 10° E
STARLINK-29 2.8 00:49:32 32° WSW 00:50:51 78° SSE 00:54:02 10° ENE
ERBS 4.5 00:48:07 10° NW 00:51:05 29° NNE 00:54:03 10° ENE
STARLINK-1238 3.5 00:49:16 10° WNW 00:53:24 64° SSW 00:57:29 10° SE
Cosmos 2227 Rocket 2.2 00:48:09 10° NNW 00:53:53 89° SW 00:59:33 10° SSE
STARLINK-1239 4.0 00:51:29 10° WNW 00:55:37 65° NNE 00:59:44 10° E
Cosmos 1697 Rocket 4.0 00:51:50 13° SSE 00:56:08 32° ESE 01:01:05 10° NE
Cosmos 2369 Rocket 4.5 00:53:08 10° WNW 00:56:57 18° NW 01:00:47 10° N
STARLINK-1201 3.6 00:54:16 10° WNW 00:58:22 60° SSW 01:02:26 10° SE
BREEZE-M R/B 3.1 00:56:16 23° SW 00:58:45 45° SSE 01:01:38 10° E
Meteor 2-1 Rocket 4.2 00:54:21 10° NNW 00:59:50 69° W 01:04:04 17° S
STARLINK-1240 4.0 00:56:29 10° WNW 01:00:38 67° NNE 01:04:45 10° E
GEOS 3 Rocket 4.3 00:58:31 21° SSW 01:01:08 33° WSW 01:05:53 10° WNW
FALCON 9 R/B 4.1 00:57:53 19° SW 01:02:48 34° SSE 01:21:46 10° ESE
STARLINK-1206 3.6 00:59:14 10° WNW 01:03:18 57° SSW 01:07:22 10° SE
Cosmos 2285 Rocket 4.4 00:57:59 10° NNW 01:04:23 66° ENE 01:10:40 10° SE
STARLINK-1338 4.0 01:03:21 27° S 01:04:38 37° SE 01:07:58 10° ENE
ATLAS CENTAUR R/B 2.7 01:01:34 12° WSW 01:05:09 35° NW 01:08:54 10° NNE
Cosmos 1626 Rocket 3.8 01:02:56 24° SW 01:05:21 54° WNW 01:09:38 10° N
STARLINK-1216 3.9 01:01:27 10° WNW 01:05:36 70° NNE 01:09:44 10° E
NPP 3.8 01:00:23 10° NNE 01:05:48 73° ESE 01:09:58 17° S
STARLINK-1205 3.7 01:04:14 10° WNW 01:08:17 53° SSW 01:12:18 10° SE
Cosmos 220 Rocket 4.4 01:06:00 21° SW 01:08:44 55° WNW 01:13:07 10° NNE
CZ-4B R/B 3.8 01:04:11 10° NNE 01:09:20 68° ESE 01:13:30 16° S
STARLINK-1371 3.9 01:07:56 26° SSW 01:09:23 40° SSE 01:12:46 10° ENE
Cosmos 1703 4.0 01:07:34 16° SSE 01:10:34 50° E 01:14:25 10° NNE
STARLINK-1237 3.9 01:06:26 10° WNW 01:10:35 72° NNE 01:14:44 10° ESE
STARLINK-1341 3.8 01:10:15 26° SSW 01:11:46 41° SSE 01:15:09 10° ENE
BREEZE-M DEB (TANK) 3.4 01:11:53 18° SSE 01:11:53 18° SSE 01:13:38 10° E
Meteor 2-10 Rocket 3.5 01:07:06 10° NNW 01:12:26 74° W 01:16:53 14° S
Cosmos 1709 Rocket 4.0 01:07:36 17° S 01:12:28 88° E 01:18:39 10° N
Cosmos 1656 3.8 01:08:23 19° SSW 01:12:29 70° ESE 01:18:06 10° NNE
SL-08 R/B 4.5 01:08:36 10° SE 01:13:00 42° ENE 01:17:22 10° N
STARLINK-1218 3.7 01:09:12 10° WNW 01:13:13 50° SSW 01:17:13 10° SE
CZ-4C R/B 3.1 01:10:23 16° S 01:13:58 36° ESE 01:19:19 10° NE
STARLINK-1374 3.8 01:12:34 25° SSW 01:14:11 42° SSE 01:17:35 10° ENE
FALCON 9 DEB 3.0 01:13:20 22° WSW 01:15:25 77° SSE 01:18:53 10° ENE
STARLINK-1202 3.8 01:11:26 10° WNW 01:15:35 75° NNE 01:19:44 10° ESE
STARLINK-1339 3.7 01:14:55 24° SSW 01:16:39 44° SSE 01:20:05 10° ENE
Cosmos 990 Rocket 4.0 01:12:24 10° NNW 01:17:40 71° WSW 01:22:52 10° SSE
STARLINK-1254 3.8 01:14:12 10° WNW 01:18:11 47° SSW 01:22:09 10° SE
RESURS DK-1 3.5 01:15:35 15° WSW 01:18:35 35° NW 01:22:25 10° NNE
STARLINK-1377 3.7 01:17:17 24° SSW 01:19:06 46° SSE 01:22:33 10° ENE
STARLINK-1353 3.6 01:19:40 23° SSW 01:21:34 48° SSE 01:25:02 10° ENE
ATLAS 3B R/B 3.9 01:17:59 10° WNW 01:22:53 21° WSW 01:25:57 16° SW
STARLINK-1231 3.9 01:19:12 10° WNW 01:23:09 43° SW 01:27:05 10° SE
STARLINK-1375 3.6 01:22:01 22° SW 01:24:00 49° SSE 01:27:30 10° ENE
CZ-4C R/B 4.3 01:22:02 20° SSW 01:24:24 34° W 01:28:25 10° NNW
Cosmos 1812 Rocket 4.3 01:21:19 10° NNW 01:25:29 38° W 01:28:17 18° SSW
STARLINK-1246 3.7 01:21:23 10° WNW 01:25:33 80° NNE 01:29:42 10° ESE
STARLINK-1350 3.5 01:24:27 22° SW 01:26:33 51° SSE 01:30:03 10° ENE
STARLINK-52 3.1 01:24:32 15° WSW 01:27:08 74° NNW 01:30:21 10° ENE
Cosmos 1626 4.4 01:25:23 10° W 01:27:30 15° WNW 01:29:39 10° NNW
STARLINK-1232 4.0 01:24:12 10° WNW 01:28:06 41° SW 01:32:00 10° SE
CBERS-1 4.3 01:23:07 10° NNE 01:28:14 67° ESE 01:32:56 12° S
STARLINK-1352 3.5 01:26:52 21° SW 01:29:03 53° SSE 01:32:36 10° ENE
STARLINK-1224 3.7 01:26:22 10° WNW 01:30:32 84° NNE 01:34:41 10° ESE
STARLINK-1368 3.4 01:29:19 20° SW 01:31:36 56° SSE 01:35:08 10° ENE
Cosmos 841 Rocket 4.3 01:27:07 11° S 01:31:59 45° ESE 01:36:58 10° NE
STARLINK-1208 4.1 01:29:12 10° WNW 01:33:04 38° SW 01:36:54 10° SSE
STARLINK-1369 3.4 01:31:46 19° SW 01:34:09 58° SSE 01:37:42 10° ENE
Cosmos 2369 4.1 01:30:19 13° S 01:35:13 57° ESE 01:40:46 10° NE
STARLINK-1225 3.6 01:31:20 10° WNW 01:35:30 87° NNE 01:39:39 10° ESE
STARLINK-1372 3.4 01:34:13 18° SW 01:36:43 60° SSE 01:40:17 10° ENE
STARLINK-1271 4.2 01:34:12 10° WNW 01:38:00 35° SW 01:41:48 10° SSE
Cosmos 1825 Rocket 3.5 01:35:00 15° SSW 01:38:31 78° WNW 01:42:51 10° N
STARLINK-1378 3.3 01:36:42 18° SW 01:39:17 62° SSE 01:42:52 10° ENE
Meteor 1-21 Rocket 4.4 01:34:55 15° SSW 01:39:27 60° WNW 01:45:07 10° N
STARLINK-1230 3.6 01:36:20 10° WNW 01:40:30 89° S 01:44:38 10° ESE
Cosmos-2242 3.1 01:36:42 10° NNW 01:40:53 57° W 01:44:49 11° S
STARLINK-1329 3.3 01:38:25 17° SW 01:41:04 64° SSE 01:44:40 10° ENE
STARLINK-1379 3.3 01:39:11 17° SW 01:41:52 64° SSE 01:45:28 10° ENE
Cosmos 2221 4.1 01:38:52 10° N 01:42:54 36° ENE 01:46:56 10° SE
STARLINK-1154 4.2 01:39:13 10° WNW 01:42:57 33° SW 01:46:41 10° SSE
STARLINK-1365 3.3 01:40:27 16° SW 01:43:13 68° SSE 01:46:51 10° ENE
ERS-2 3.1 01:39:58 10° SE 01:43:31 49° ENE 01:47:05 10° N
STARLINK-1362 3.3 01:40:58 16° SW 01:43:43 66° SSE 01:47:20 10° ENE
IRS-1D 3.6 01:38:43 10° NNE 01:44:07 89° ESE 01:49:10 11° SSW
STARLINK-1243 3.6 01:41:19 10° WNW 01:45:28 86° SSW 01:49:37 10° ESE
STARLINK-1373 3.3 01:43:28 15° SW 01:46:20 69° SSE 01:49:57 10° ENE
BREEZE M DEB (TANK) 3.5 01:44:04 10° W 01:46:21 29° SSW 01:51:01 10° SE
STARLINK-1197 4.3 01:44:13 10° W 01:47:54 31° SW 01:51:33 10° SSE
STARLINK-1390 3.3 01:45:52 15° SW 01:48:49 71° SSE 01:52:26 10° ENE
Cosmos 1763 Rocket 3.5 01:44:25 14° SSW 01:48:49 78° WNW 01:53:57 10° NNE
Cosmos 2219 4.2 01:44:34 10° NW 01:49:14 27° WSW 01:53:27 12° SSW
Cosmos 1980 Rocket 3.1 01:43:59 10° S 01:49:15 44° ESE 01:54:34 10° NE
STARLINK-1236 3.5 01:46:18 10° WNW 01:50:28 82° SSW 01:54:36 10° ESE
ATLAS CENTAUR R/B 3.0 01:48:03 10° W 01:50:55 28° SW 01:56:32 10° SSE
STARLINK-1198 4.4 01:49:17 10° W 01:52:52 29° SW 01:56:27 10° SSE
STARLINK-1320 2.8 01:50:50 14° WSW 01:53:27 81° SSE 01:56:35 10° ENE
STARLINK-1322 2.8 01:51:09 14° WSW 01:53:47 81° SSE 01:56:55 10° ENE
ATLAS 2AS CENTAUR R/B 4.3 01:46:40 10° W 01:53:57 37° NNW 02:01:03 10° NE
STARLINK-1324 2.8 01:51:29 14° WSW 01:54:08 82° SSE 01:57:16 10° ENE
STARLINK-1294 2.8 01:51:47 13° WSW 01:54:26 82° SSE 01:57:36 10° ENE
Cosmos 2074 Rocket 4.2 01:48:31 10° S 01:54:48 77° E 02:01:06 10° NNE
STARLINK-1261 2.8 01:52:08 13° WSW 01:54:48 82° SSE 01:57:57 10° ENE
STARLINK-1325 2.8 01:52:28 13° WSW 01:55:09 83° SSE 01:58:17 10° ENE
GP-B 3.6 01:51:09 10° N 01:55:24 44° W 01:59:19 12° SSW
STARLINK-1333 2.8 01:52:48 13° WSW 01:55:29 83° SSE 01:58:37 10° ENE
STARLINK-1334 2.8 01:53:07 13° WSW 01:55:49 83° SSE 01:58:57 10° ENE
STARLINK-1326 2.8 01:53:27 13° WSW 01:56:10 84° SSE 01:59:18 10° ENE
STARLINK-1323 2.8 01:53:46 13° WSW 01:56:30 84° SSE 01:59:38 10° ENE
STARLINK-1349 2.8 01:54:06 13° WSW 01:56:50 85° SSE 01:59:58 10° ENE
STARLINK-1336 2.8 01:54:25 13° WSW 01:57:10 85° SSE 02:00:18 10° ENE
STARLINK-1331 2.8 01:54:45 13° WSW 01:57:30 85° SSE 02:00:39 10° ENE
STARLINK-1344 2.8 01:55:05 12° WSW 01:57:52 86° SSE 02:01:00 10° ENE
STARLINK-1343 2.8 01:55:23 12° WSW 01:58:11 86° SSE 02:01:19 10° ENE
STARLINK-60 4.0 01:55:15 10° W 01:58:22 47° N 02:01:30 10° ENE
STARLINK-1346 2.8 01:55:40 12° WSW 01:58:31 86° SSE 02:01:41 10° ENE
STARLINK-1328 2.8 01:56:02 12° WSW 01:58:52 87° SSE 02:01:59 10° ENE
STARLINK-1354 2.8 01:56:22 12° WSW 01:59:12 87° SSE 02:02:20 10° ENE
STARLINK-1347 2.8 01:56:41 12° WSW 01:59:32 87° SSE 02:02:40 10° ENE
STARLINK-1357 2.8 01:57:01 12° WSW 01:59:52 88° S 02:03:00 10° ENE
Lacrosse 4 Rocket 1.5 01:55:53 10° NW 02:00:12 61° WSW 02:04:22 10° SSE
STARLINK-1335 2.8 01:57:23 12° WSW 02:00:15 88° SSE 02:03:24 10° ENE
STARLINK-1269 3.5 01:56:14 10° WNW 02:00:23 74° SSW 02:04:32 10° ESE
STARLINK-1327 2.8 01:57:41 12° WSW 02:00:33 88° S 02:03:42 10° ENE
STARLINK-1340 2.8 01:57:59 12° WSW 02:00:53 89° S 02:04:02 10° ENE
Starlink 7 placeholder 3.7 01:59:09 10° WNW 02:00:57 30° N 02:02:47 10° ENE
STARLINK-1356 2.8 01:58:19 12° WSW 02:01:13 89° SSE 02:04:21 10° ENE
Cosmos 2297 Rocket 3.2 01:56:54 10° NW 02:01:31 26° WSW 02:06:07 10° SSW
STARLINK-1345 2.8 01:58:39 11° WSW 02:01:34 89° SSE 02:04:43 10° ENE
STARLINK-1355 2.8 01:58:58 11° WSW 02:01:54 90° SSW 02:05:02 10° ENE
STARLINK-1321 2.8 01:59:18 11° WSW 02:02:15 90° WNW 02:05:23 10° ENE
STARLINK-1358 2.8 01:59:37 11° WSW 02:02:34 89° NW 02:05:43 10° ENE
STARLINK-1332 2.8 01:59:59 11° WSW 02:02:57 89° NW 02:06:05 10° ENE
STARLINK-1348 2.8 02:00:16 11° WSW 02:03:16 89° NNW 02:06:23 10° ENE
SL-16 R/B 3.5 01:58:27 11° SSW 02:03:17 27° W 02:08:29 10° NW
STARLINK-1330 2.8 02:00:36 11° WSW 02:03:36 88° N 02:06:44 10° ENE
Cosmos 2150 Rocket 4.2 01:58:24 10° NNW 02:03:38 75° ENE 02:08:46 10° SSE
STARLINK-1363 2.8 02:00:57 11° WSW 02:03:57 88° NNW 02:07:05 10° ENE
STARLINK-1337 2.8 02:01:16 11° WSW 02:04:17 88° NW 02:07:25 10° ENE
STARLINK-1342 2.8 02:01:33 11° WSW 02:04:36 87° NNW 02:07:43 10° ENE
STARLINK-1364 2.8 02:01:53 11° WSW 02:04:56 87° NNW 02:08:05 10° ENE
STARLINK-1376 2.9 02:02:14 10° WSW 02:05:18 87° NNW 02:08:26 10° ENE
STARLINK-1200 3.5 02:01:15 10° WNW 02:05:23 70° SSW 02:09:31 10° SE
STARLINK-1360 2.9 02:02:33 10° WSW 02:05:37 87° NNW 02:08:46 10° ENE
STARLINK-1361 2.9 02:02:53 10° WSW 02:05:58 86° NNW 02:09:05 10° ENE
STARLINK-1367 2.9 02:03:09 10° WSW 02:06:16 86° NNW 02:09:27 10° ENE
STARLINK-1366 2.9 02:03:33 10° WSW 02:06:40 86° NNW 02:09:48 10° ENE
Cosmos 2082 4.1 02:01:56 10° NW 02:07:17 44° WSW 02:12:35 10° S
Cosmos 1455 3.8 02:05:35 10° NW 02:08:18 19° W 02:10:52 11° SW
NOSS 7 (H) 4.2 02:05:34 12° SW 02:08:25 72° NW 02:11:22 10° NE
Cosmos 2184 Rocket 4.0 02:02:21 10° S 02:08:33 90° W 02:14:46 10° N
Cosmos 1328 4.5 02:06:12 11° SW 02:09:45 40° WNW 02:13:33 10° N
STARLINK-1192 3.6 02:06:14 10° WNW 02:10:22 66° SSW 02:14:28 10° SE
ARIANE 5 R/B 2.7 02:05:24 10° NNE 02:10:30 76° ESE 02:15:31 10° S
Cosmos 2084 Rocket 4.0 02:06:19 10° NW 02:10:47 69° NE 02:15:15 10° SE
Meteor 1-28 Rocket 3.1 02:10:07 10° S 02:13:53 79° WSW 02:17:41 10° NNW
Cosmos 2263 Rocket 2.8 02:08:46 10° NNW 02:14:22 62° ENE 02:19:54 10° SE
STARLINK-1244 3.6 02:11:13 10° WNW 02:15:19 62° SSW 02:19:25 10° SE
ADEOS II 2.2 02:10:19 10° N 02:15:33 66° WNW 02:20:45 10° SSW
Cosmos 2278 3.8 02:10:16 10° SSW 02:15:54 80° ESE 02:21:36 10° NNE
H-2A R/B 2.2 02:13:19 10° SSE 02:17:40 89° ENE 02:22:09 10° NNW
SL-4 R/B 2.7 02:14:18 10° W 02:19:07 71° N 02:23:42 10° E
STARLINK-1138 3.7 02:16:11 10° WNW 02:20:17 58° SSW 02:24:21 10° SE
Spot 4 Rocket 4.4 02:15:27 10° NNE 02:20:36 69° ESE 02:25:43 10° S
Timation 1 Rocket 4.4 02:14:57 10° NNW 02:20:58 85° WSW 02:26:56 10° SSE
Cosmos 2322 Rocket 4.4 02:17:22 10° SSE 02:21:32 21° E 02:25:39 10° NE
IRS-P3 4.3 02:16:34 10° N 02:21:52 65° WNW 02:27:07 10° SSW
CZ-2D R/B 3.4 02:19:04 10° N 02:23:25 27° WNW 02:27:44 10° WSW
Cosmos 1892 4.2 02:20:15 10° SSE 02:23:47 36° E 02:27:19 10° NNE
SJ 16-02 3.2 02:21:19 10° WNW 02:23:47 15° W 02:26:16 10° SW
Cosmos 1937 Rocket 4.4 02:19:27 10° NW 02:23:57 29° W 02:28:27 10° SSW
STARLINK-1143 3.7 02:21:10 10° WNW 02:25:14 55° SSW 02:29:17 10° SE
Cosmos 2298 Rocket 4.0 02:20:50 10° NNW 02:26:07 69° WSW 02:31:23 10° SSE
Resurs 1-4 Rocket 3.5 02:21:56 10° N 02:26:13 26° WNW 02:30:29 10° WSW
Cosmos 2227 4.4 02:20:32 10° NNW 02:26:19 84° ENE 02:32:05 10° SSE
STARLINK-29 3.9 02:24:01 10° W 02:27:08 47° N 02:30:14 10° ENE
ERBS 2.2 02:24:21 10° WNW 02:27:42 85° SW 02:31:02 10° SE
Meteor 1-11 4.4 02:23:33 10° SSW 02:29:06 59° WNW 02:34:39 10° N
STARLINK-1203 3.8 02:25:29 10° WNW 02:29:34 51° SSW 02:33:39 10° SE
STARLINK-1241 3.8 02:26:10 10° WNW 02:30:13 51° SSW 02:34:14 10° SE
Cosmos 1570 Rocket 4.3 02:26:04 10° SW 02:31:18 57° WNW 02:36:33 10° NNE
